{"data":{"norad_id":66833,"epoch":"2026-09-20T06:34:19.896096Z","epoch_age_seconds":103987,"freshness":"FRESH","line1":"1 66833U 25280N   26263.27384139 -.00001394  00000+0 -10910-3 0  9991","line2":"2 66833  70.0008 203.8020 0003107 269.3714  90.7089 14.98322627 45221","mean_motion":14.98322627,"eccentricity":0.0003107,"inclination_deg":70.0008,"raan_deg":203.802,"arg_perigee_deg":269.3714,"mean_anomaly_deg":90.7089,"bstar":-0.0001091,"rev_number":4522,"period_min":96.107472052479,"perigee_km":569.91925941688,"apogee_km":574.23812344754,"semimajor_km":6950.2156914322,"source":"CELESTRAK","updated_at":"2026-09-21T09:00:36.021988Z"}}